NOAA 16 DEB, 41709

Orbit data source: Space-Track

NOAA 16 DEB, 41709 is space debris in SSO originally from a launch on Thu, 21 Sep 2000 UTC launched from the Air Force Western Test Range (AFWTR). Debris objects in space refer to the collection of defunct objects orbiting the Earth. Examples of debris include non-operational satellites, rocket bodies, and fragments generated from explosions, collisions, or faulty payload assembly.

Loading next visibility...
Identifier
41709, 2000-055PP
Orbit
SSO
Country
Flag of USUS
Related business
Manufacturer
Unknown
Mission
Spacecraft
Bus & Motor
Unknown
Mass
Unknown
Launch date (UTC)
2000-09-21 (25 years ago)
Launch vehicle
Unknown
Launch site
Air Force Western Test Range (AFWTR)
Object type
Payload
Rocket body
Debris
Shape & HBR
Unknown
Radar Cross Section
Small (<0.1 m²)

Expand to show TLE details & history
Last TLE update: 2 days ago

TLE from 2 days ago
0 NOAA 16 DEB
1 41709U 00055PP  25259.49388388  .00032253  00000-0  49601-2 0  9992
2 41709  98.9563  93.2067 0015484 171.1024 189.0458 14.73334839494162
Epoch: 2025-09-16T11:51Z
TLE epoch observation values (Epoch: 2025-09-16T11:51:11.567Z)
Latitude
-0.00004°
Longitude
-80.27488°
Altitude
664.171 km
Speed
7.519 km/s
True Right ascension
06h 12m 49s
True Declination
0° 00' 00"
Sunlit
Object was in daylight at epoch
Visualization orbit readout
Latitude
Unknown
Longitude
Unknown
Altitude
Unknown
Speed
Unknown
Apparent Right ascension
Unknown
Apparent Declination
Unknown
Sunlit
N/A
Visualization observer readout
Local Sidereal Time
10:26:23
Azimuth
Unknown
Elevation
Unknown
Doppler factor
Unknown
Orbital elements
Apogee altitude
658.421 km
Perigee altitude
636.663 km
Semi-major axis
7,025.679 km
Eccentricity
0.00155
Inclination
98.9563°
RAAN
93.2067°
Arg. of periapsis
171.1024°
True anomaly
189.01796°
Mean anomaly
189.0458°
Eccentric anomaly
189.03187°
Mean motion
3.68562 °/min
Orbital period
97.68 mins
BSTAR
0.0049601
Loading maneuver chart data...
Computing Atmospheric mass density...
Loading historical data...
Loading historical data...
Loading historical data...
Loading historical data...
Loading historical data...
Loading historical data...
Loading historical data...

Documentation

Showing up to 5 results
|